Location: Chuathbaluk
(61.5726°N, 159.2454°W)
Time: 14:09:54
(UTC+00:00)

XW-2F - Pass Details

Date: 24 January 2021
Orbit: 500 x 520 km, 97.5° (Epoch: 01 March)

Event Time Altitude Azimuth Distance (km) Brightness Sun altitude
Rises 03:38:22 0° 168° (SSE) 2,619 ? -8.8°
Reaches altitude 10° 03:40:27 10° 171° (S) 1,740 ? -9.0°
Maximum altitude 03:44:12 70° 256° (WSW) 557 ? -9.4°
Drops below altitude 10° 03:48:00 10° 340° (NNW) 1,765 ? -9.8°
Sets 03:50:08 0° 343° (NNW) 2,660 ? -10.0°
